Time,TemperatureF,DewpointF,PressureIn,WindDirection,WindDirectionDegrees,WindSpeedMPH,WindSpeedGustMPH,Humidity,HourlyPrecipIn,Conditions,Clouds,dailyrainin,SolarRadiationWatts/m^2,SoftwareType,DateUTC
2013-11-19 00:02:00,48.0,25.0,-100.00,NNE,14,3.0,5.0,40,0.00,,,0.00,112.000000,,2013-11-19 00:02:00,
2013-11-19 00:11:00,48.0,25.0,-100.00,NNE,14,3.0,5.0,40,0.00,,,0.00,112.000000,,2013-11-19 00:11:00,
2013-11-19 00:21:00,48.0,25.0,-100.00,NNE,14,3.0,5.0,40,0.00,,,0.00,112.000000,,2013-11-19 00:21:00,
2013-11-19 00:32:00,48.0,25.0,-100.00,NNE,14,3.0,5.0,40,0.00,,,0.00,112.000000,,2013-11-19 00:32:00,
2013-11-19 01:11:00,36.0,24.0,-100.00,ESE,121,6.0,7.0,61,0.00,,,0.00,12.000000,,2013-11-19 01:11:00,
2013-11-19 01:21:00,36.0,24.0,-100.00,ESE,121,6.0,7.0,61,0.00,,,0.00,12.000000,,2013-11-19 01:21:00,
2013-11-19 01:32:00,36.0,24.0,-100.00,ESE,121,6.0,7.0,61,0.00,,,0.00,12.000000,,2013-11-19 01:32:00,
2013-11-19 01:52:00,33.0,22.0,-100.00,ESE,108,6.0,7.0,63,0.00,,,0.00,0.000000,,2013-11-19 01:52:00,
2013-11-19 02:01:00,33.0,22.0,-100.00,ESE,108,6.0,7.0,63,0.00,,,0.00,0.000000,,2013-11-19 02:01:00,
2013-11-19 02:12:00,33.0,22.0,-100.00,ESE,108,6.0,7.0,63,0.00,,,0.00,0.000000,,2013-11-19 02:12:00,
2013-11-19 02:22:00,33.0,22.0,-100.00,ESE,108,6.0,7.0,63,0.00,,,0.00,0.000000,,2013-11-19 02:22:00,
2013-11-19 02:32:00,33.0,22.0,-100.00,ESE,108,6.0,7.0,63,0.00,,,0.00,0.000000,,2013-11-19 02:32:00,
2013-11-19 02:52:00,31.0,20.0,-100.00,ENE,72,2.0,7.0,64,0.00,,,0.00,0.000000,,2013-11-19 02:52:00,
2013-11-19 03:02:00,31.0,20.0,-100.00,ENE,72,2.0,7.0,64,0.00,,,0.00,0.000000,,2013-11-19 03:02:00,
2013-11-19 03:11:00,31.0,20.0,-100.00,ENE,72,2.0,7.0,64,0.00,,,0.00,0.000000,,2013-11-19 03:11:00,
2013-11-19 03:21:00,31.0,20.0,-100.00,ENE,72,2.0,7.0,64,0.00,,,0.00,0.000000,,2013-11-19 03:21:00,
2013-11-19 03:33:00,31.0,20.0,-100.00,ENE,72,2.0,7.0,64,0.00,,,0.00,0.000000,,2013-11-19 03:33:00,
2013-11-19 03:54:00,31.0,20.0,-100.00,ESE,111,3.0,7.0,64,0.00,,,0.00,0.000000,,2013-11-19 03:54:00,
2013-11-19 04:13:00,31.0,20.0,-100.00,ESE,111,3.0,7.0,64,0.00,,,0.00,0.000000,,2013-11-19 04:13:00,
2013-11-19 04:23:00,31.0,20.0,-100.00,ESE,111,3.0,7.0,64,0.00,,,0.00,0.000000,,2013-11-19 04:23:00,
2013-11-19 04:33:00,31.0,20.0,-100.00,ESE,111,3.0,7.0,64,0.00,,,0.00,0.000000,,2013-11-19 04:33:00,
2013-11-19 04:52:00,29.0,17.0,-100.00,SE,146,4.0,6.0,61,0.00,,,0.00,0.000000,,2013-11-19 04:52:00,
2013-11-19 05:02:00,29.0,17.0,-100.00,SE,146,4.0,6.0,61,0.00,,,0.00,0.000000,,2013-11-19 05:02:00,
2013-11-19 05:12:00,29.0,17.0,-100.00,SE,146,4.0,6.0,61,0.00,,,0.00,0.000000,,2013-11-19 05:12:00,
2013-11-19 05:22:00,29.0,17.0,-100.00,SE,146,4.0,6.0,61,0.00,,,0.00,0.000000,,2013-11-19 05:22:00,
2013-11-19 05:33:00,29.0,17.0,-100.00,SE,146,4.0,6.0,61,0.00,,,0.00,0.000000,,2013-11-19 05:33:00,
2013-11-19 05:53:00,28.0,20.0,-100.00,NE,53,2.0,5.0,70,0.00,,,0.00,0.000000,,2013-11-19 05:53:00,
2013-11-19 06:02:00,28.0,20.0,-100.00,NE,53,2.0,5.0,70,0.00,,,0.00,0.000000,,2013-11-19 06:02:00,
2013-11-19 06:12:00,28.0,20.0,-100.00,NE,53,2.0,5.0,70,0.00,,,0.00,0.000000,,2013-11-19 06:12:00,
2013-11-19 06:21:00,28.0,20.0,-100.00,NE,53,2.0,5.0,70,0.00,,,0.00,0.000000,,2013-11-19 06:21:00,
2013-11-19 06:31:00,28.0,20.0,-100.00,NE,53,2.0,5.0,70,0.00,,,0.00,0.000000,,2013-11-19 06:31:00,
2013-11-19 06:52:00,28.0,17.0,-100.00,ESE,120,2.0,3.0,64,0.00,,,0.00,0.000000,,2013-11-19 06:52:00,
2013-11-19 07:01:00,28.0,17.0,-100.00,ESE,120,2.0,3.0,64,0.00,,,0.00,0.000000,,2013-11-19 07:01:00,
2013-11-19 07:12:00,28.0,17.0,-100.00,ESE,120,2.0,3.0,64,0.00,,,0.00,0.000000,,2013-11-19 07:12:00,
2013-11-19 07:22:00,28.0,17.0,-100.00,ESE,120,2.0,3.0,64,0.00,,,0.00,0.000000,,2013-11-19 07:22:00,
2013-11-19 07:32:00,28.0,17.0,-100.00,ESE,120,2.0,3.0,64,0.00,,,0.00,0.000000,,2013-11-19 07:32:00,
2013-11-19 07:52:00,29.0,19.0,-100.00,SE,139,3.0,5.0,66,0.00,,,0.00,0.000000,,2013-11-19 07:52:00,
2013-11-19 08:01:00,29.0,19.0,-100.00,SE,139,3.0,5.0,66,0.00,,,0.00,0.000000,,2013-11-19 08:01:00,
2013-11-19 08:11:00,29.0,19.0,-100.00,SE,139,3.0,5.0,66,0.00,,,0.00,0.000000,,2013-11-19 08:11:00,
2013-11-19 08:22:00,29.0,19.0,-100.00,SE,139,3.0,5.0,66,0.00,,,0.00,0.000000,,2013-11-19 08:22:00,
2013-11-19 08:32:00,29.0,19.0,-100.00,SE,139,3.0,5.0,66,0.00,,,0.00,0.000000,,2013-11-19 08:32:00,
2013-11-19 08:52:00,29.0,18.0,-100.00,ESE,107,2.0,3.0,64,0.00,,,0.00,0.000000,,2013-11-19 08:52:00,
2013-11-19 09:02:00,29.0,18.0,-100.00,ESE,107,2.0,3.0,64,0.00,,,0.00,0.000000,,2013-11-19 09:02:00,
2013-11-19 09:11:00,29.0,18.0,-100.00,ESE,107,2.0,3.0,64,0.00,,,0.00,0.000000,,2013-11-19 09:11:00,
2013-11-19 09:21:00,29.0,18.0,-100.00,ESE,107,2.0,3.0,64,0.00,,,0.00,0.000000,,2013-11-19 09:21:00,
2013-11-19 09:33:00,29.0,18.0,-100.00,ESE,107,2.0,3.0,64,0.00,,,0.00,0.000000,,2013-11-19 09:33:00,
2013-11-19 09:53:00,25.0,19.0,-100.00,SSE,155,4.0,5.0,77,0.00,,,0.00,0.000000,,2013-11-19 09:53:00,
2013-11-19 10:03:00,25.0,19.0,-100.00,SSE,155,4.0,5.0,77,0.00,,,0.00,0.000000,,2013-11-19 10:03:00,
2013-11-19 10:12:00,25.0,19.0,-100.00,SSE,155,4.0,5.0,77,0.00,,,0.00,0.000000,,2013-11-19 10:12:00,
2013-11-19 10:23:00,25.0,19.0,-100.00,SSE,155,4.0,5.0,77,0.00,,,0.00,0.000000,,2013-11-19 10:23:00,
2013-11-19 10:33:00,25.0,19.0,-100.00,SSE,155,4.0,5.0,77,0.00,,,0.00,0.000000,,2013-11-19 10:33:00,
2013-11-19 10:53:00,25.0,18.0,-100.00,East,82,3.0,6.0,73,0.00,,,0.00,0.000000,,2013-11-19 10:53:00,
2013-11-19 11:02:00,25.0,18.0,-100.00,East,82,3.0,6.0,73,0.00,,,0.00,0.000000,,2013-11-19 11:02:00,
2013-11-19 11:12:00,25.0,18.0,-100.00,East,82,3.0,6.0,73,0.00,,,0.00,0.000000,,2013-11-19 11:12:00,
2013-11-19 11:22:00,25.0,18.0,-100.00,East,82,3.0,6.0,73,0.00,,,0.00,0.000000,,2013-11-19 11:22:00,
2013-11-19 11:32:00,25.0,18.0,-100.00,East,82,3.0,6.0,73,0.00,,,0.00,0.000000,,2013-11-19 11:32:00,
2013-11-19 11:52:00,25.0,19.0,-100.00,SSE,161,3.0,7.0,77,0.00,,,0.00,0.000000,,2013-11-19 11:52:00,
2013-11-19 12:02:00,25.0,19.0,-100.00,SSE,161,3.0,7.0,77,0.00,,,0.00,0.000000,,2013-11-19 12:02:00,
2013-11-19 12:12:00,25.0,19.0,-100.00,SSE,161,3.0,7.0,77,0.00,,,0.00,0.000000,,2013-11-19 12:12:00,
2013-11-19 12:21:00,25.0,19.0,-100.00,SSE,161,3.0,7.0,77,0.00,,,0.00,0.000000,,2013-11-19 12:21:00,
2013-11-19 12:32:00,25.0,19.0,-100.00,SSE,161,3.0,7.0,77,0.00,,,0.00,0.000000,,2013-11-19 12:32:00,
2013-11-19 12:52:00,24.0,19.0,-100.00,NE,51,3.0,5.0,82,0.00,,,0.00,0.000000,,2013-11-19 12:52:00,
2013-11-19 13:01:00,24.0,19.0,-100.00,NE,51,3.0,5.0,82,0.00,,,0.00,0.000000,,2013-11-19 13:01:00,
2013-11-19 13:11:00,24.0,19.0,-100.00,NE,51,3.0,5.0,82,0.00,,,0.00,0.000000,,2013-11-19 13:11:00,
2013-11-19 13:21:00,24.0,19.0,-100.00,NE,51,3.0,5.0,82,0.00,,,0.00,0.000000,,2013-11-19 13:21:00,
2013-11-19 13:32:00,24.0,19.0,-100.00,NE,51,3.0,5.0,82,0.00,,,0.00,0.000000,,2013-11-19 13:32:00,
2013-11-19 13:52:00,24.0,19.0,-100.00,SE,145,2.0,5.0,81,0.00,,,0.00,0.000000,,2013-11-19 13:52:00,
2013-11-19 14:02:00,24.0,19.0,-100.00,SE,145,2.0,5.0,81,0.00,,,0.00,0.000000,,2013-11-19 14:02:00,
2013-11-19 14:11:00,24.0,19.0,-100.00,SE,145,2.0,5.0,81,0.00,,,0.00,0.000000,,2013-11-19 14:11:00,
2013-11-19 14:22:00,24.0,19.0,-100.00,SE,145,2.0,5.0,81,0.00,,,0.00,0.000000,,2013-11-19 14:22:00,
2013-11-19 14:32:00,24.0,19.0,-100.00,SE,145,2.0,5.0,81,0.00,,,0.00,0.000000,,2013-11-19 14:32:00,
2013-11-19 16:13:00,28.0,23.0,-100.00,ESE,104,2.0,4.0,80,-99.99,,,0.00,29.000000,,2013-11-19 16:13:00,
2013-11-19 16:23:00,28.0,23.0,-100.00,ESE,104,2.0,4.0,80,-99.99,,,0.00,29.000000,,2013-11-19 16:23:00,
2013-11-19 16:33:00,28.0,23.0,-100.00,ESE,104,2.0,4.0,80,-99.99,,,0.00,29.000000,,2013-11-19 16:33:00,
2013-11-19 16:52:00,41.0,27.0,-100.00,West,278,3.0,5.0,58,0.00,,,0.00,333.000000,,2013-11-19 16:52:00,
2013-11-19 17:02:00,41.0,27.0,-100.00,West,278,3.0,5.0,58,0.00,,,0.00,333.000000,,2013-11-19 17:02:00,
2013-11-19 17:12:00,41.0,27.0,-100.00,West,278,3.0,5.0,58,0.00,,,0.00,333.000000,,2013-11-19 17:12:00,
2013-11-19 17:22:00,41.0,27.0,-100.00,West,278,3.0,5.0,58,0.00,,,0.00,333.000000,,2013-11-19 17:22:00,
2013-11-19 17:32:00,41.0,27.0,-100.00,West,278,3.0,5.0,58,0.00,,,0.00,333.000000,,2013-11-19 17:32:00,
2013-11-19 17:52:00,49.0,28.0,-100.00,WSW,242,2.0,4.0,44,0.00,,,0.00,437.000000,,2013-11-19 17:52:00,
2013-11-19 18:02:00,49.0,28.0,-100.00,WSW,242,2.0,4.0,44,0.00,,,0.00,437.000000,,2013-11-19 18:02:00,
2013-11-19 18:12:00,49.0,28.0,-100.00,WSW,242,2.0,4.0,44,0.00,,,0.00,437.000000,,2013-11-19 18:12:00,
2013-11-19 18:22:00,49.0,28.0,-100.00,WSW,242,2.0,4.0,44,0.00,,,0.00,437.000000,,2013-11-19 18:22:00,
2013-11-19 18:32:00,49.0,28.0,-100.00,WSW,242,2.0,4.0,44,0.00,,,0.00,437.000000,,2013-11-19 18:32:00,
2013-11-19 18:52:00,51.0,28.0,-100.00,SW,224,5.0,10.0,40,0.00,,,0.00,544.000000,,2013-11-19 18:52:00,
2013-11-19 19:01:00,51.0,28.0,-100.00,SW,224,5.0,10.0,40,0.00,,,0.00,544.000000,,2013-11-19 19:01:00,
2013-11-19 19:11:00,51.0,28.0,-100.00,SW,224,5.0,10.0,40,0.00,,,0.00,544.000000,,2013-11-19 19:11:00,
2013-11-19 19:21:00,51.0,28.0,-100.00,SW,224,5.0,10.0,40,0.00,,,0.00,544.000000,,2013-11-19 19:21:00,
2013-11-19 19:32:00,51.0,28.0,-100.00,SW,224,5.0,10.0,40,0.00,,,0.00,544.000000,,2013-11-19 19:32:00,
2013-11-19 19:52:00,54.0,30.0,-100.00,West,270,6.0,13.0,40,0.00,,,0.00,556.000000,,2013-11-19 19:52:00,
2013-11-19 20:02:00,54.0,30.0,-100.00,West,270,6.0,13.0,40,0.00,,,0.00,556.000000,,2013-11-19 20:02:00,
2013-11-19 20:12:00,54.0,30.0,-100.00,West,270,6.0,13.0,40,0.00,,,0.00,556.000000,,2013-11-19 20:12:00,
2013-11-19 20:21:00,54.0,30.0,-100.00,West,270,6.0,13.0,40,0.00,,,0.00,556.000000,,2013-11-19 20:21:00,
2013-11-19 20:32:00,54.0,30.0,-100.00,West,270,6.0,13.0,40,0.00,,,0.00,556.000000,,2013-11-19 20:32:00,
2013-11-19 20:52:00,55.0,30.0,-100.00,WNW,301,4.0,14.0,38,0.00,,,0.00,522.000000,,2013-11-19 20:52:00,
2013-11-19 21:02:00,55.0,30.0,-100.00,WNW,301,4.0,14.0,38,0.00,,,0.00,522.000000,,2013-11-19 21:02:00,
2013-11-19 21:11:00,55.0,30.0,-100.00,WNW,301,4.0,14.0,38,0.00,,,0.00,522.000000,,2013-11-19 21:11:00,
2013-11-19 21:21:00,55.0,30.0,-100.00,WNW,301,4.0,14.0,38,0.00,,,0.00,522.000000,,2013-11-19 21:21:00,
2013-11-19 21:33:00,55.0,30.0,-100.00,WNW,301,4.0,14.0,38,0.00,,,0.00,522.000000,,2013-11-19 21:33:00,
2013-11-19 21:54:00,56.0,29.0,-100.00,WSW,251,7.0,14.0,35,0.00,,,0.00,392.000000,,2013-11-19 21:54:00,
2013-11-19 22:03:00,56.0,29.0,-100.00,WSW,251,7.0,14.0,35,0.00,,,0.00,392.000000,,2013-11-19 22:03:00,
2013-11-19 22:13:00,56.0,29.0,-100.00,WSW,251,7.0,14.0,35,0.00,,,0.00,392.000000,,2013-11-19 22:13:00,
2013-11-19 22:23:00,56.0,29.0,-100.00,WSW,251,7.0,14.0,35,0.00,,,0.00,392.000000,,2013-11-19 22:23:00,
2013-11-19 22:33:00,56.0,29.0,-100.00,WSW,251,7.0,14.0,35,0.00,,,0.00,392.000000,,2013-11-19 22:33:00,
2013-11-19 22:53:00,55.0,29.0,-100.00,WSW,240,7.0,13.0,36,0.00,,,0.00,278.000000,,2013-11-19 22:53:00,
2013-11-19 23:02:00,55.0,29.0,-100.00,WSW,240,7.0,13.0,36,0.00,,,0.00,278.000000,,2013-11-19 23:02:00,
2013-11-19 23:12:00,55.0,29.0,-100.00,WSW,240,7.0,13.0,36,0.00,,,0.00,278.000000,,2013-11-19 23:12:00,
2013-11-19 23:22:00,55.0,29.0,-100.00,WSW,240,7.0,13.0,36,0.00,,,0.00,278.000000,,2013-11-19 23:22:00,
2013-11-19 23:32:00,55.0,29.0,-100.00,WSW,240,7.0,13.0,36,0.00,,,0.00,278.000000,,2013-11-19 23:32:00,
2013-11-19 23:52:00,52.0,27.0,-100.00,West,259,5.0,10.0,37,0.00,,,0.00,123.000000,,2013-11-19 23:52:00,